This demonstration page uses our WeatherBlox Daily Observations layout. Learn more.

39.29038, -76.61219

Hourly Observations for June 21, 2019

Temp ( °F °C ) Dew Point ( °F °C ) Humidity (%) Winds ( mph kmh ) Pressure ( in mb ) Visibility ( mi km ) Precip ( " mm )
12:54 am 00:54 undefined 73 22.8 70 21.1 90 90 undefined N/A 29.53 1000 N/A 0 0
1:54 am 01:54 undefined 73 22.8 70 21.1 90 90 undefined N/A 29.53 1000 N/A 0 0
2:54 am 02:54 undefined 73 22.8 69 20.6 87 87 undefined N/A 29.53 1000 N/A 0 0
3:54 am 03:54 undefined 74 23.3 64 17.8 71 71 undefined N/A 29.5 999 N/A 0 0
4:54 am 04:54 undefined 74 23.3 62 16.7 67 67 undefined N/A 29.53 1000 N/A 0 0
5:54 am 05:54 undefined 73 22.8 62 16.7 69 69 undefined N/A 29.53 1000 N/A 0 0
6:54 am 06:54 undefined 74 23.3 62 16.7 67 67 undefined N/A 29.53 1000 N/A 0 0
7:54 am 07:54 undefined 74 23.3 60 15.6 62 62 undefined N/A 29.56 1001 N/A 0 0
8:54 am 08:54 undefined 74 23.3 60 15.6 62 62 undefined N/A 29.62 1003 N/A 0 0
9:54 am 09:54 undefined 74 23.3 60 15.6 62 62 undefined N/A 29.65 1004 N/A 0 0
10:54 am 10:54 undefined 78 25.6 60 15.6 54 54 undefined N/A 29.71 1006 N/A 0 0
11:54 am 11:54 undefined 78 25.6 58 14.4 50 50 undefined N/A 29.74 1007 N/A 0 0
12:54 pm 12:54 undefined 79 26.1 54 12.2 42 42 undefined N/A 29.74 1007 N/A 0 0
1:54 pm 13:54 undefined 81 27.2 55 12.8 41 41 undefined N/A 29.77 1008 N/A 0 0
2:54 pm 14:54 undefined 82 27.8 53 11.7 37 37 undefined N/A 29.77 1008 N/A 0 0
3:54 pm 15:54 undefined 82 27.8 52 11.1 35 35 undefined N/A 29.77 1008 N/A 0 0
4:54 pm 16:54 undefined 83 28.3 52 11.1 34 34 undefined N/A 29.8 1009 N/A 0 0
5:54 pm 17:54 undefined 82 27.8 53 11.7 37 37 undefined N/A 29.8 1009 N/A 0 0
6:54 pm 18:54 undefined 81 27.2 54 12.2 39 39 undefined N/A 29.8 1009 N/A 0 0
7:54 pm 19:54 undefined 79 26.1 56 13.3 45 45 undefined N/A 29.83 1010 N/A 0 0
8:54 pm 20:54 undefined 78 25.6 56 13.3 47 47 undefined N/A 29.83 1010 N/A 0 0
9:54 pm 21:54 undefined 77 25 53 11.7 43 43 undefined N/A 29.85 1011 N/A 0 0
10:54 pm 22:54 undefined 76 24.4 51 10.6 42 42 undefined N/A 29.88 1012 N/A 0 0
11:54 pm 23:54 undefined 74 23.3 51 10.6 45 45 undefined N/A 29.91 1013 N/A 0 0

Powered by AerisWeather